Home > Time Zones > World Clock > Weather > Aktau > Past weeks

Flag for Kazakhstan Weather past 2 weeks in Aktau, Kazakhstan

Now
77 °F

Sunny.


Feels Like: 78 °F
Forecast: 75 / 91 °F
Wind: 6 mph from North

Location: Aktau

Current Time: Jul 31, 2014 at 11:08:34 PM

Latest Report: Jul 31, 2014 at 10:30 PM


Visibility: 10 mi

Pressure: 29.95 "Hg

Humidity: 32%

Dew point: 45 °F

Location of AktauLocation

Historic Weather in Aktau — Graph

°F

Aktau temperature yesterday

Maximum temperature yesterday: 88 °F (at 3:00 PM)
Minimum temperature yesterday: 57 °F (at 5:00 AM)
Average temperature yesterday: 73 °F

Past Weeks' High & Low Weather Summary

 TemperatureHumidityPressure
High100 °F (Jul 25, 1:30 PM)74% (Jul 19, 8:00 PM)30.04 "Hg (Jul 19, 8:00 PM)
Low57 °F (Jul 30, 5:00 AM)7% (Jul 31, 12:00 PM)29.56 "Hg (Jul 19, 8:00 PM)
Average80 °F25%29.85 "Hg
* Reported Jul 16 10:00 PM — Jul 31 10:00 PM, Aktau, Weather by CustomWeather, © 2014

Note: Actual official high and low records may vary slightly from our data, if they occured in-between our weather recording intervals... More about our weather records

Advertising

Aktau weather history for previous 24 hours

 ConditionsComfort  
Time TempWeatherWind HumidityBarometerVisibility
10:00 PM
Jul 31
77 °FSunny.8 mph36%29.95 "Hg10 mi
9:30 PM77 °FSunny.8 mph39%29.95 "Hg10 mi
9:00 PM77 °FPassing clouds.10 mph39%29.95 "HgN/A
8:30 PM79 °FSunny.10 mph37%29.95 "Hg10 mi
8:00 PM79 °FPassing clouds.10 mph34%29.95 "HgN/A
7:30 PM81 °FSunny.13 mph28%29.95 "Hg10 mi
7:00 PM82 °FSunny.10 mph19%29.95 "Hg10 mi
6:30 PM84 °FSunny.8 mph14%29.95 "Hg10 mi
6:00 PM86 °FSunny.8 mph12%29.95 "Hg10 mi
5:30 PM86 °FSunny.8 mph11%29.95 "Hg10 mi
5:00 PM88 °FSunny.10 mph9%29.95 "Hg10 mi
4:30 PM88 °FSunny.10 mph9%29.95 "Hg10 mi
4:00 PM88 °FSunny.10 mph12%29.98 "Hg10 mi
3:30 PM88 °FSunny.15 mph12%29.98 "Hg10 mi
3:00 PM90 °FSunny.15 mph9%29.98 "Hg10 mi
2:30 PM91 °FPassing clouds.8 mph7%29.98 "HgN/A
2:00 PM90 °FPassing clouds.8 mph7%29.98 "HgN/A
1:30 PM91 °FPassing clouds.13 mph7%29.98 "HgN/A
1:00 PM91 °FSunny.13 mph7%29.98 "Hg10 mi
12:30 PM90 °FPassing clouds.15 mph8%29.98 "HgN/A
12:00 PM90 °FSunny.17 mph7%29.98 "Hg10 mi
11:30 AM88 °FSunny.17 mph9%29.98 "Hg10 mi
11:00 AM86 °FSunny.17 mph8%29.98 "Hg10 mi
10:30 AM84 °FSunny.15 mph10%30.01 "Hg10 mi
10:00 AM81 °FSunny.15 mph11%30.01 "Hg10 mi
9:30 AM79 °FSunny.15 mph12%30.01 "Hg10 mi
9:00 AM77 °FSunny.15 mph13%30.01 "Hg10 mi
8:30 AM75 °FSunny.13 mph14%30.01 "Hg10 mi
7:30 AM68 °FClear.10 mph23%30.01 "Hg10 mi
7:00 AM64 °FClear.10 mph30%30.01 "Hg10 mi
6:30 AM64 °FClear.10 mph32%30.01 "Hg10 mi
6:00 AM63 °FClear.13 mph34%29.98 "Hg10 mi
5:30 AM63 °FClear.13 mph37%29.98 "Hg10 mi
5:00 AM63 °FClear.13 mph37%29.98 "Hg10 mi
4:30 AM63 °FClear.13 mph37%29.98 "Hg10 mi
4:00 AM63 °FClear.13 mph39%29.98 "Hg10 mi
3:30 AM64 °FClear.13 mph37%29.98 "Hg10 mi
3:00 AM64 °FClear.10 mph40%29.98 "Hg10 mi
2:30 AM64 °FClear.10 mph37%29.98 "Hg10 mi
2:00 AM64 °FClear.10 mph30%29.98 "Hg10 mi
1:30 AM66 °FClear.10 mph28%29.98 "Hg10 mi
1:00 AM66 °FClear.10 mph24%30.01 "Hg10 mi
12:30 AM66 °FClear.10 mph18%30.01 "Hg10 mi
12:00 AM66 °FClear.10 mph18%30.01 "Hg10 mi
11:30 PM
Jul 30
70 °FClear.10 mph16%30.01 "Hg10 mi
Weather by CustomWeather, © 2014

See weather overviewHow to use our weather pages